Volver al catálogo

STARLINK-2112

ActivoComunicacionesVLEO
NORAD 47391·PAYLOAD·🇺🇸 United States

Lanzado Jan 20, 2021 desde Cape Canaveral Space Force Station

Loading…

Próximos Pases (próximas 24 horas)

TLE

ActualizadoSource: CelesTrak SupGP

Época: Sep 15, 2026, 00:54 UTC

1 47391C 21005AU  26258.03798611  .00006210  00000+0  32362-3 0  2585
2 47391  53.0657 254.9883 0002162  60.6652  13.7233 15.15468657    15

Sigue STARLINK-2112 en tiempo real con AllMySat

Download on the App Store